TEVEL2-6

Last updated on Mon Sep 21 2026 00:03:15 GMT+0000 (Coordinated Universal Time)

1 63215U 25052F 26263.46184648 .00014212 00000+0 38886-3 0 9996 2 63215 97.3757 160.0562 0004306 110.5150 249.6557 15.37451961 84735
UTC large
Height (km)
Speed (km/s)
/
Latitude / Longitude
Inclination (degrees)
Orbital Period (minutes)
Azimuth
Elevation
Range (km)
Doppler Factor

Next 0 passes for location: London (51.5072 / 0.1276)

No passes found over London.
TEVEL2-6